When you browse on this site, cookies collect data to enhance your experience and personalize the content and advertising you see.
Visit our Privacy Policy to learn more. By continuing to use the site, you agree to this use of cookies and data.

Meteo pe oră la Skierniewice

Astăzi, 2 Iulie, Joi

Timp Temperatura Precipitaţii Vânt Presiune Umiditate
00:00 +19°C° 1.3 mm 2 m/s 745 mmHg 91%
01:00 +19°C° 0 mm 2 m/s 744 mmHg 92%
02:00 +19°C° 0.4 mm 2 m/s 744 mmHg 93%
03:00 +19°C° 0.4 mm 3 m/s 744 mmHg 93%
04:00 +19°C° 0.4 mm 3 m/s 744 mmHg 93%
05:00 +20°C° 0 mm 4 m/s 744 mmHg 91%
06:00 +21°C° 0 mm 4 m/s 745 mmHg 88%
07:00 +22°C° 0 mm 4 m/s 745 mmHg 84%
08:00 +23°C° 0.2 mm 4 m/s 746 mmHg 80%
09:00 +25°C° 0.2 mm 4 m/s 746 mmHg 75%
10:00 +26°C° 0.2 mm 4 m/s 746 mmHg 70%
11:00 +27°C° 0.2 mm 4 m/s 746 mmHg 68%
12:00 +27°C° 0.2 mm 4 m/s 746 mmHg 65%
13:00 +27°C° 0.2 mm 4 m/s 746 mmHg 63%
14:00 +27°C° 0.2 mm 4 m/s 746 mmHg 65%
15:00 +27°C° 0.2 mm 4 m/s 746 mmHg 67%
16:00 +26°C° 0.2 mm 3 m/s 746 mmHg 69%
17:00 +25°C° 0.1 mm 3 m/s 746 mmHg 74%
18:00 +24°C° 0.1 mm 2 m/s 746 mmHg 79%
19:00 +23°C° 0.1 mm 2 m/s 746 mmHg 84%
20:00 +22°C° 0 mm 1 m/s 746 mmHg 85%
21:00 +21°C° 0 mm 1 m/s 746 mmHg 86%
22:00 +20°C° 0 mm 1 m/s 746 mmHg 87%
23:00 +18°C° 0 mm 0 m/s 746 mmHg 86%

Mâine, 3 Iulie, Vineri

Timp Temperatura Precipitaţii Vânt Presiune Umiditate
00:00 +18°C° 0 mm 0 m/s 746 mmHg 86%
01:00 +18°C° 0 mm 0 m/s 747 mmHg 85%
02:00 +18°C° 0 mm 0 m/s 746 mmHg 85%
03:00 +17°C° 0 mm 0 m/s 746 mmHg 85%
04:00 +17°C° 0 mm 0 m/s 746 mmHg 85%
05:00 +20°C° 0 mm 1 m/s 746 mmHg 81%
06:00 +22°C° 0 mm 1 m/s 746 mmHg 78%
07:00 +23°C° 0 mm 1 m/s 747 mmHg 74%
08:00 +23°C° 0.4 mm 1 m/s 747 mmHg 72%
09:00 +24°C° 0.4 mm 2 m/s 747 mmHg 70%
10:00 +24°C° 0.4 mm 2 m/s 747 mmHg 68%
11:00 +24°C° 0.6 mm 3 m/s 747 mmHg 69%
12:00 +24°C° 0.6 mm 3 m/s 747 mmHg 71%
13:00 +23°C° 0.6 mm 4 m/s 748 mmHg 73%
14:00 +23°C° 0.1 mm 4 m/s 748 mmHg 71%
15:00 +23°C° 0.1 mm 4 m/s 748 mmHg 69%
16:00 +23°C° 0.1 mm 5 m/s 748 mmHg 67%
17:00 +22°C° 0 mm 4 m/s 748 mmHg 71%
18:00 +21°C° 0 mm 3 m/s 748 mmHg 75%
19:00 +21°C° 0 mm 3 m/s 749 mmHg 79%
20:00 +19°C° 0 mm 3 m/s 749 mmHg 80%
21:00 +18°C° 0 mm 3 m/s 750 mmHg 81%
22:00 +17°C° 0 mm 3 m/s 750 mmHg 82%
23:00 +16°C° 0 mm 3 m/s 750 mmHg 85%

Poimâine, 4 Iulie, Sâmbătă

Timp Temperatura Precipitaţii Vânt Presiune Umiditate
00:00 +16°C° 0 mm 2 m/s 750 mmHg 88%
01:00 +15°C° 0 mm 2 m/s 751 mmHg 91%
02:00 +15°C° 0 mm 2 m/s 751 mmHg 92%
03:00 +15°C° 0 mm 2 m/s 751 mmHg 93%
04:00 +15°C° 0 mm 2 m/s 751 mmHg 93%
05:00 +16°C° 0 mm 2 m/s 751 mmHg 88%
06:00 +18°C° 0 mm 2 m/s 751 mmHg 82%
07:00 +20°C° 0 mm 2 m/s 751 mmHg 76%
08:00 +21°C° 0 mm 3 m/s 752 mmHg 70%
09:00 +22°C° 0 mm 3 m/s 752 mmHg 65%
10:00 +24°C° 0 mm 3 m/s 752 mmHg 59%
11:00 +25°C° 0 mm 3 m/s 751 mmHg 57%
12:00 +25°C° 0 mm 3 m/s 751 mmHg 56%
13:00 +26°C° 0 mm 3 m/s 751 mmHg 54%
14:00 +26°C° 0 mm 3 m/s 751 mmHg 55%
15:00 +26°C° 0 mm 3 m/s 750 mmHg 57%
16:00 +26°C° 0 mm 3 m/s 750 mmHg 58%
17:00 +25°C° 0.1 mm 3 m/s 750 mmHg 64%
18:00 +24°C° 0.1 mm 2 m/s 750 mmHg 70%
19:00 +23°C° 0.1 mm 2 m/s 750 mmHg 76%
20:00 +21°C° 0 mm 2 m/s 750 mmHg 77%
21:00 +20°C° 0 mm 2 m/s 750 mmHg 79%
22:00 +19°C° 0 mm 2 m/s 750 mmHg 81%
23:00 +18°C° 0 mm 2 m/s 750 mmHg 81%

5 Iulie, Duminică

Timp Temperatura Precipitaţii Vânt Presiune Umiditate
00:00 +18°C° 0 mm 2 m/s 750 mmHg 82%
01:00 +18°C° 0 mm 2 m/s 750 mmHg 83%
02:00 +17°C° 0 mm 3 m/s 750 mmHg 84%
03:00 +17°C° 0 mm 3 m/s 750 mmHg 85%
04:00 +17°C° 0 mm 3 m/s 750 mmHg 86%
05:00 +18°C° 0 mm 3 m/s 750 mmHg 83%
06:00 +20°C° 0 mm 4 m/s 750 mmHg 79%
07:00 +21°C° 0 mm 4 m/s 749 mmHg 75%
08:00 +22°C° 0.1 mm 4 m/s 749 mmHg 73%
09:00 +23°C° 0.1 mm 4 m/s 749 mmHg 71%
10:00 +23°C° 0.1 mm 4 m/s 749 mmHg 68%
11:00 +23°C° 0.1 mm 4 m/s 749 mmHg 70%
12:00 +23°C° 0.1 mm 4 m/s 749 mmHg 71%
13:00 +23°C° 0.1 mm 4 m/s 748 mmHg 72%
14:00 +23°C° 0.2 mm 4 m/s 748 mmHg 74%
15:00 +23°C° 0.2 mm 4 m/s 748 mmHg 75%
16:00 +23°C° 0.2 mm 4 m/s 747 mmHg 76%
17:00 +23°C° 0 mm 4 m/s 747 mmHg 78%
18:00 +22°C° 0 mm 3 m/s 747 mmHg 80%
19:00 +23°C° 0 mm 2 m/s 747 mmHg 82%
20:00 +21°C° 0 mm 3 m/s 747 mmHg 84%
21:00 +20°C° 0 mm 3 m/s 747 mmHg 86%
22:00 +19°C° 0 mm 3 m/s 747 mmHg 88%
23:00 +19°C° 0 mm 4 m/s 747 mmHg 88%

6 Iulie, Luni

Timp Temperatura Precipitaţii Vânt Presiune Umiditate
00:00 +19°C° 0 mm 4 m/s 747 mmHg 88%
01:00 +19°C° 0 mm 4 m/s 747 mmHg 88%
02:00 +19°C° 0 mm 4 m/s 746 mmHg 88%
03:00 +19°C° 0 mm 4 m/s 746 mmHg 88%
04:00 +19°C° 0 mm 4 m/s 746 mmHg 88%
05:00 +20°C° 0 mm 5 m/s 746 mmHg 85%
06:00 +21°C° 0 mm 5 m/s 746 mmHg 81%
07:00 +22°C° 0 mm 6 m/s 746 mmHg 78%
08:00 +23°C° 0.1 mm 6 m/s 746 mmHg 75%
09:00 +24°C° 0.1 mm 6 m/s 746 mmHg 73%
10:00 +24°C° 0.1 mm 6 m/s 746 mmHg 70%
11:00 +24°C° 0.4 mm 6 m/s 746 mmHg 72%
12:00 +25°C° 0.4 mm 5 m/s 746 mmHg 73%
13:00 +23°C° 0.4 mm 5 m/s 745 mmHg 75%
14:00 +23°C° 0.1 mm 5 m/s 745 mmHg 73%
15:00 +23°C° 0.1 mm 5 m/s 745 mmHg 72%
16:00 +23°C° 0.1 mm 5 m/s 745 mmHg 71%
17:00 +21°C° 0 mm 4 m/s 746 mmHg 72%
18:00 +20°C° 0 mm 4 m/s 746 mmHg 74%
19:00 +19°C° 0 mm 4 m/s 746 mmHg 76%
20:00 +18°C° 0 mm 3 m/s 747 mmHg 78%
21:00 +17°C° 0 mm 3 m/s 747 mmHg 80%
22:00 +17°C° 0 mm 3 m/s 748 mmHg 83%
23:00 +16°C° 0 mm 3 m/s 748 mmHg 80%

7 Iulie, Marţi

Timp Temperatura Precipitaţii Vânt Presiune Umiditate
00:00 +16°C° 0 mm 3 m/s 748 mmHg 77%
01:00 +16°C° 0 mm 3 m/s 749 mmHg 74%
02:00 +14°C° 0 mm 3 m/s 749 mmHg 75%
03:00 +13°C° 0 mm 3 m/s 749 mmHg 76%
04:00 +13°C° 0 mm 3 m/s 750 mmHg 77%
05:00 +13°C° 0 mm 4 m/s 750 mmHg 77%
06:00 +14°C° 0 mm 4 m/s 750 mmHg 76%
07:00 +15°C° 0 mm 5 m/s 751 mmHg 76%
08:00 +16°C° 0 mm 5 m/s 751 mmHg 73%
09:00 +16°C° 0 mm 5 m/s 751 mmHg 70%
10:00 +17°C° 0 mm 5 m/s 751 mmHg 67%
11:00 +19°C° 0.1 mm 5 m/s 751 mmHg 65%
12:00 +19°C° 0.1 mm 4 m/s 751 mmHg 63%
13:00 +20°C° 0.1 mm 4 m/s 751 mmHg 61%
14:00 +19°C° 0.2 mm 4 m/s 751 mmHg 63%
15:00 +19°C° 0.2 mm 4 m/s 751 mmHg 64%
16:00 +19°C° 0.2 mm 4 m/s 751 mmHg 66%
17:00 +18°C° 0.1 mm 4 m/s 751 mmHg 70%
18:00 +17°C° 0.1 mm 4 m/s 752 mmHg 74%
19:00 +15°C° 0.1 mm 4 m/s 752 mmHg 78%
20:00 +14°C° 0 mm 4 m/s 752 mmHg 80%
21:00 +13°C° 0 mm 3 m/s 752 mmHg 81%
22:00 +12°C° 0 mm 3 m/s 753 mmHg 82%
23:00 +11°C° 0 mm 3 m/s 753 mmHg 82%
Arată mai mult